Weather History for Pagosa Springs, CO

Change the Weather History Date:

Friday, December 30, 2011

  Actual Average (KDRO) Record (KDRO)
Temperature  
Mean Temperature 32 °F 24 °F  
Max Temperature 45 °F 37 °F 55 °F (1980)
Min Temperature 18 °F 10 °F -11 °F (1988)
Degree Days  
Heating Degree Days 34 41  
Month to date heating degree days 1160  
Since 1 July heating degree days 2833  
Cooling Degree Days 0 0  
Month to date cooling degree days 0  
Year to date cooling degree days 243  
Moisture  
Dew Point 21 °F    
Average Humidity 69    
Maximum Humidity 95    
Minimum Humidity 41    
Precipitation  
Precipitation 0.00 in 0.05 in 0.43 in (1972)
Month to date precipitation 1.11  
Year to date precipitation 16.01  
Sea Level Pressure  
Sea Level Pressure 30.19 in    
Wind  
Wind Speed 1 mph (ENE)    
Max Wind Speed 7 mph    
Max Gust Speed -    
Visibility 10 miles    
Events      
T = Trace of Precipitation, MM = Missing Value Source: NWS Daily Summary

Daily Weather History Graph

Daily Weather History Graph

Search for Another Location

Airport:

Trip Planner

Search our weather history database for the weather conditions in past years. The results will help you decide how hot, cold, wet, or windy it might be!

Date:

Astronomy

Dec. 30, 2011 Rise Set
Actual Time 7:21 AM MST 4:59 PM MST
Civil Twilight 6:52 AM MST 5:28 PM MST
Nautical Twilight 6:20 AM MST 6:01 PM MST
Astronomical Twilight 5:48 AM MST 6:33 PM MST
Moon 10:51 AM MST (12/30) 11:28 PM MST (12/30)
Length of Visible Light 10h 36m
Length of Day
9h 37m
Waxing Crescent, 36% of the Moon is Illuminated
Dec 30
Waxing Crescent
Dec 31
First Quarter
Jan 9
Full
Jan 16
Last Quarter
Jan 23
New

Hourly Weather History & Observations

Time (MST) Temp. Windchill Dew Point Humidity Pressure Visibility Wind Dir Wind Speed Gust Speed Precip Events Conditions
12:15 AM 20.1 °F - 18.0 °F 91% 30.19 in 10.0 mi Calm Calm - N/A   Clear
12:35 AM 22.1 °F - 18.3 °F 85% 30.18 in 10.0 mi Calm Calm - N/A   Clear
12:55 AM 23.0 °F - 18.0 °F 81% 30.17 in 10.0 mi Calm Calm - N/A   Clear
1:55 AM 20.1 °F - 17.8 °F 91% 30.19 in 10.0 mi Calm Calm - N/A   Clear
2:15 AM 21.0 °F - 19.8 °F 95% 30.19 in 10.0 mi Calm Calm - N/A   Clear
2:55 AM 18.5 °F - 15.8 °F 89% 30.20 in 10.0 mi Calm Calm - N/A   Clear
3:15 AM 22.5 °F - 19.6 °F 89% 30.20 in 10.0 mi Calm Calm - N/A   Clear
3:35 AM 19.8 °F - 17.6 °F 91% 30.20 in 10.0 mi Calm Calm - N/A   Clear
3:55 AM 20.7 °F 15.8 °F 18.0 °F 89% 30.21 in 10.0 mi NE 3.5 mph - N/A   Clear
4:15 AM 21.4 °F - 18.0 °F 87% 30.21 in 10.0 mi Calm Calm - N/A   Clear
4:35 AM 19.4 °F 14.3 °F 14.9 °F 83% 30.19 in 10.0 mi NE 3.5 mph - N/A   Clear
5:15 AM 19.0 °F - 17.4 °F 93% 30.20 in 10.0 mi Calm Calm - N/A   Clear
5:35 AM 21.6 °F - 18.3 °F 87% 30.20 in 10.0 mi Calm Calm - N/A   Clear
5:55 AM 22.5 °F 15.1 °F 18.7 °F 85% 30.19 in 10.0 mi NE 5.8 mph - N/A   Clear
6:15 AM 22.3 °F - 18.3 °F 85% 30.19 in 10.0 mi Calm Calm - N/A   Clear
6:35 AM 21.4 °F 15.1 °F 18.5 °F 89% 30.21 in 10.0 mi West 4.6 mph - N/A   Clear
6:55 AM 27.3 °F - 19.9 °F 74% 30.21 in 10.0 mi Calm Calm - N/A   Clear
7:15 AM 23.5 °F - 17.6 °F 78% 30.21 in 10.0 mi Calm Calm - N/A   Clear
7:35 AM 21.2 °F 14.9 °F 17.2 °F 85% 30.21 in 10.0 mi NE 4.6 mph - N/A   Clear
7:55 AM 21.7 °F - 17.6 °F 84% 30.21 in 10.0 mi Calm Calm - N/A   Clear
8:15 AM 20.5 °F - 17.8 °F 89% 30.22 in 10.0 mi Calm Calm - N/A   Clear
8:35 AM 25.5 °F - 19.4 °F 78% 30.24 in 10.0 mi Calm Calm - N/A   Clear
8:55 AM 25.2 °F - 19.9 °F 81% 30.25 in 10.0 mi Calm Calm - N/A   Clear
9:15 AM 26.6 °F - 19.4 °F 74% 30.26 in 10.0 mi Calm Calm - N/A   Clear
9:35 AM 29.5 °F 24.5 °F 20.3 °F 69% 30.26 in 10.0 mi NNE 4.6 mph - N/A   Clear
9:55 AM 32.2 °F 27.7 °F 21.2 °F 64% 30.26 in 10.0 mi NNE 4.6 mph - N/A   Clear
10:15 AM 34.7 °F - 21.2 °F 58% 30.26 in 10.0 mi Calm Calm - N/A   Clear
10:35 AM 37.0 °F - 21.6 °F 54% 30.26 in 10.0 mi Calm Calm - N/A   Clear
11:15 AM 37.0 °F - 21.6 °F 54% 30.23 in 10.0 mi Calm Calm - N/A   Clear
11:35 AM 38.3 °F - 21.6 °F 51% 30.22 in 10.0 mi Calm Calm - N/A   Clear
12:15 PM 40.6 °F 38.6 °F 21.6 °F 47% 30.20 in 10.0 mi WSW 3.5 mph - N/A   Clear
12:35 PM 42.4 °F 38.1 °F 23.4 °F 47% 30.19 in 10.0 mi SSW 6.9 mph - N/A   Clear
12:55 PM 43.0 °F 41.3 °F 23.7 °F 47% 30.18 in 10.0 mi SSW 3.5 mph - N/A   Clear
1:15 PM 43.7 °F 42.1 °F 23.7 °F 45% 30.17 in 10.0 mi SSW 3.5 mph - N/A   Clear
1:35 PM 44.1 °F 40.8 °F 23.4 °F 44% 30.17 in 10.0 mi SSW 5.8 mph - N/A   Clear
1:55 PM 45.0 °F 42.6 °F 22.8 °F 42% 30.17 in 10.0 mi SSW 4.6 mph - N/A   Clear
2:15 PM 45.1 °F - 22.8 °F 41% 30.17 in 10.0 mi Calm Calm - N/A   Clear
2:35 PM 45.0 °F 42.6 °F 23.7 °F 43% 30.17 in 10.0 mi SSE 4.6 mph - N/A   Clear
2:55 PM 45.1 °F - 23.2 °F 42% 30.17 in 10.0 mi Calm Calm - N/A   Clear
3:15 PM 45.9 °F - 23.2 °F 41% 30.17 in 10.0 mi Calm Calm - N/A   Clear
3:35 PM 45.7 °F - 23.4 °F 41% 30.17 in 10.0 mi Calm Calm - N/A   Clear
3:55 PM 45.5 °F - 23.4 °F 42% 30.17 in 10.0 mi Calm Calm - N/A   Clear
4:15 PM 45.1 °F - 24.1 °F 44% 30.17 in 10.0 mi Calm Calm - N/A   Clear
4:35 PM 43.0 °F - 24.8 °F 49% 30.17 in 10.0 mi Calm Calm - N/A   Unknown
4:55 PM 35.4 °F - 24.4 °F 64% 30.17 in 10.0 mi Calm Calm - N/A   Unknown
5:15 PM 34.7 °F - 24.4 °F 66% 30.16 in 10.0 mi Calm Calm - N/A   Clear
5:35 PM 32.9 °F - 23.7 °F 69% 30.17 in 10.0 mi Calm Calm - N/A   Clear
5:55 PM 32.9 °F - 24.4 °F 71% 30.17 in 10.0 mi Calm Calm - N/A   Clear
6:15 PM 31.6 °F - 23.7 °F 73% 30.17 in 10.0 mi Calm Calm - N/A   Clear
6:35 PM 29.7 °F - 23.4 °F 77% 30.17 in 10.0 mi Calm Calm - N/A   Clear
6:55 PM 29.1 °F - 23.2 °F 78% 30.17 in 10.0 mi Calm Calm - N/A   Clear
7:15 PM 30.4 °F 25.6 °F 22.5 °F 72% 30.17 in 10.0 mi NNE 4.6 mph - N/A   Clear
7:35 PM 29.3 °F 25.6 °F 22.3 °F 75% 30.17 in 10.0 mi NNE 3.5 mph - N/A   Clear
7:55 PM 29.3 °F - 21.9 °F 74% 30.16 in 10.0 mi Calm Calm - N/A   Clear
8:15 PM 28.8 °F 25.0 °F 21.9 °F 76% 30.16 in 10.0 mi NNE 3.5 mph - N/A   Clear
8:55 PM 26.1 °F - 22.1 °F 85% 30.15 in 10.0 mi Calm Calm - N/A   Clear
9:15 PM 26.2 °F - 23.5 °F 90% 30.15 in 10.0 mi Calm Calm - N/A   Clear
9:55 PM 24.6 °F - 22.6 °F 92% 30.14 in 10.0 mi Calm Calm - N/A   Clear
10:15 PM 23.9 °F - 22.5 °F 94% 30.14 in 10.0 mi Calm Calm - N/A   Clear
10:35 PM 24.6 °F - 22.8 °F 93% 30.14 in 10.0 mi Calm Calm - N/A   Clear
10:55 PM 23.0 °F - 21.0 °F 92% 30.14 in 10.0 mi Calm Calm - N/A   Clear
11:15 PM 24.8 °F - 22.1 °F 89% 30.14 in 10.0 mi Calm Calm - N/A   Clear
11:35 PM 24.3 °F - 22.5 °F 93% 30.13 in 10.0 mi Calm Calm - N/A   Clear
11:55 PM 25.0 °F - 23.5 °F 94% 30.13 in 10.0 mi Calm Calm - N/A   Clear